Location: Dompnac
(44.5644°N, 4.1026°E)
Time: 23:13:28
(UTC+00:00)

Cosmos 1626 - Pass Details

Date: 23 January 2021
Orbit: 490 x 494 km, 82.5° (Epoch: 25 February)

Event Time Altitude Azimuth Distance (km) Brightness Sun altitude
Rises 17:03:22 0° 204° (SSW) 2,563 6.5 -4.6°
Reaches altitude 10° 17:05:33 10° 212° (SSW) 1,685 5.8 -4.9°
Maximum altitude 17:09:02 39° 283° (WNW) 748 3.6 -5.5°
Drops below altitude 10° 17:12:33 10° 354° (N) 1,697 4.7 -6.1°
Sets 17:14:46 0° 2° (N) 2,583 5.5 -6.5°
